Mojave, CA

8:26 AM PDT on October 17, 2017 (GMT -0700)
Mojave

Weather History for KMHV - April, 2014

Change the Weather History Date:

Friday, April 11, 2014

  Actual Average Record
Temperature  
Mean Temperature 72 °F -  
Max Temperature 82 °F 69 °F 89 °F (1989)
Min Temperature 62 °F 46 °F 32 °F (1980)
Cooling Degree Days 7    
Growing Degree Days 22 (Base 50)    
Moisture  
Dew Point 26 °F    
Average Humidity 20    
Maximum Humidity 33    
Minimum Humidity 6    
Precipitation  
Precipitation 0.00 in - - ()
Sea Level Pressure  
Sea Level Pressure 29.90 in    
Wind  
Wind Speed 15 mph (SW)    
Max Wind Speed 24 mph    
Max Gust Speed 32 mph    
Visibility 10 miles    
Events      
Averages and records for this station are not official NWS values.
T = Trace of Precipitation, MM = Missing Value Source: NWS Daily Summary

Daily Weather History Graph

Daily Weather History Graph

Search for Another Location

Airport or City:

Trip Planner

Search our weather history database for the weather conditions in past years. The results will help you decide how hot, cold, wet, or windy it might be!

Date:

Astronomy

Apr. 11, 2014 Rise Set
Actual Time 6:25 AM PDT 7:22 PM PDT
Civil Twilight 5:59 AM PDT 7:47 PM PDT
Nautical Twilight 5:29 AM PDT 8:18 PM PDT
Astronomical Twilight 4:57 AM PDT 8:50 PM PDT
Moon 4:14 PM PDT (4/11) 4:15 AM PDT (4/11)
Length of Visible Light 13h 48m
Length of Day
12h 56m
Waxing Gibbous, 87% of the Moon is Illuminated
Apr 11
Waxing Gibbous
Apr 15
Full
Apr 22
Last Quarter
Apr 28
New
May 6
First Quarter

Hourly Weather History & Observations

Time (PDT) Temp. Dew Point Humidity Pressure Visibility Wind Dir Wind Speed Gust Speed Precip Events Conditions
12:15 AM 68.0 °F 35.6 °F 30% 29.98 in 10.0 mi WSW 16.1 mph 24.2 mph N/A   Clear
12:35 AM 68.0 °F 37.4 °F 33% 29.97 in 10.0 mi SW 13.8 mph - N/A   Clear
12:55 AM 68.0 °F 37.4 °F 33% 29.97 in 10.0 mi WNW 16.1 mph 19.6 mph N/A   Clear
1:15 AM 68.0 °F 35.6 °F 30% 29.96 in 10.0 mi WNW 12.7 mph 24.2 mph N/A   Clear
1:35 AM 68.0 °F 37.4 °F 33% 29.96 in 10.0 mi West 10.4 mph 19.6 mph N/A   Clear
1:55 AM 68.0 °F 35.6 °F 30% 29.95 in 10.0 mi WNW 13.8 mph - N/A   Clear
2:15 AM 68.0 °F 32.0 °F 26% 29.94 in 10.0 mi West 9.2 mph 17.3 mph N/A   Clear
2:35 AM 68.0 °F 33.8 °F 28% 29.94 in 10.0 mi SW 11.5 mph 16.1 mph N/A   Clear
2:55 AM 68.0 °F 32.0 °F 26% 29.94 in 10.0 mi WSW 15.0 mph - N/A   Clear
3:15 AM 68.0 °F 33.8 °F 28% 29.93 in 10.0 mi West 13.8 mph 19.6 mph N/A   Clear
3:35 AM 68.0 °F 32.0 °F 26% 29.92 in 10.0 mi West 10.4 mph 20.7 mph N/A   Clear
3:55 AM 68.0 °F 30.2 °F 24% 29.93 in 10.0 mi WSW 10.4 mph 18.4 mph N/A   Clear
4:15 AM 68.0 °F 26.6 °F 21% 29.92 in 10.0 mi West 11.5 mph 20.7 mph N/A   Clear
4:35 AM 64.4 °F 32.0 °F 30% 29.92 in 10.0 mi WSW 13.8 mph - N/A   Clear
4:55 AM 66.2 °F 32.0 °F 28% 29.92 in 10.0 mi SW 15.0 mph - N/A   Clear
5:15 AM 66.2 °F 32.0 °F 28% 29.92 in 10.0 mi WSW 13.8 mph - N/A   Clear
5:35 AM 66.2 °F 32.0 °F 28% 29.92 in 10.0 mi West 11.5 mph - N/A   Clear
5:55 AM 66.2 °F 32.0 °F 28% 29.92 in 10.0 mi WSW 11.5 mph - N/A   Clear
6:15 AM 66.2 °F 32.0 °F 28% 29.92 in 10.0 mi WSW 11.5 mph - N/A   Clear
6:35 AM 64.4 °F 32.0 °F 30% 29.92 in 10.0 mi WSW 11.5 mph - N/A   Clear
6:55 AM 64.4 °F 32.0 °F 30% 29.92 in 10.0 mi SW 12.7 mph - N/A   Clear
7:15 AM 62.6 °F 32.0 °F 32% 29.93 in 10.0 mi SW 12.7 mph - N/A   Clear
7:35 AM 66.2 °F 32.0 °F 28% 29.93 in 10.0 mi WSW 13.8 mph - N/A   Clear
7:55 AM 68.0 °F 28.4 °F 23% 29.94 in 10.0 mi WSW 13.8 mph - N/A   Clear
8:15 AM 69.8 °F 32.0 °F 25% 29.94 in 10.0 mi WSW 13.8 mph - N/A   Unknown
8:35 AM 71.6 °F 32.0 °F 23% 29.94 in 10.0 mi West 13.8 mph - N/A   Clear
8:55 AM 73.4 °F 30.2 °F 20% 29.94 in 10.0 mi West 13.8 mph - N/A   Clear
9:15 AM 75.2 °F 24.8 °F 15% 29.94 in 10.0 mi West 10.4 mph - N/A   Clear
9:35 AM 75.2 °F 24.8 °F 15% 29.94 in 10.0 mi WSW 11.5 mph - N/A   Clear
9:55 AM 77.0 °F 26.6 °F 16% 29.95 in 10.0 mi WSW 9.2 mph - N/A   Clear
10:15 AM 77.0 °F 24.8 °F 14% 29.95 in 10.0 mi SW 11.5 mph - N/A   Clear
10:35 AM 77.0 °F 23.0 °F 13% 29.95 in 10.0 mi SSW 16.1 mph - N/A   Clear
10:55 AM - - N/A% - - North - - N/A   Unknown
11:15 AM 78.8 °F 10.4 °F 7% 29.94 in 10.0 mi SSW 13.8 mph - N/A   Unknown
11:35 AM - - N/A% 29.93 in - SSW 17.3 mph - N/A   Unknown
11:55 AM 80.6 °F 10.4 °F 7% 29.92 in 10.0 mi SSW 18.4 mph 24.2 mph N/A   Clear
12:15 PM 80.6 °F 12.2 °F 8% 29.92 in 10.0 mi SSW 17.3 mph 26.5 mph N/A   Clear
12:55 PM 82.4 °F 10.4 °F 7% 29.91 in 10.0 mi SSW 19.6 mph 24.2 mph N/A   Clear
1:15 PM 82.4 °F 10.4 °F 7% 29.90 in 10.0 mi South 20.7 mph 29.9 mph N/A   Clear
1:35 PM 82.4 °F 10.4 °F 7% 29.89 in 10.0 mi SSW 19.6 mph 29.9 mph N/A   Clear
1:55 PM 82.4 °F 10.4 °F 7% 29.89 in 10.0 mi SSW 20.7 mph 28.8 mph N/A   Clear
2:15 PM 82.4 °F 8.6 °F 6% 29.88 in 10.0 mi SSW 19.6 mph 28.8 mph N/A   Clear
2:35 PM 82.4 °F 10.4 °F 7% 29.88 in 10.0 mi SSW 19.6 mph 29.9 mph N/A   Clear
2:55 PM 82.4 °F 12.2 °F 7% 29.87 in 10.0 mi SSW 20.7 mph 28.8 mph N/A   Clear
3:15 PM 82.4 °F 14.0 °F 8% 29.86 in 10.0 mi SSW 18.4 mph 26.5 mph N/A   Clear
3:35 PM 82.4 °F 15.8 °F 8% 29.85 in 10.0 mi SSW 21.9 mph 27.6 mph N/A   Clear
3:55 PM 80.6 °F 15.8 °F 9% 29.85 in 10.0 mi SSW 20.7 mph 32.2 mph N/A   Clear
4:15 PM 80.6 °F 15.8 °F 9% 29.84 in 10.0 mi SSW 21.9 mph 26.5 mph N/A   Clear
4:35 PM 80.6 °F 15.8 °F 9% 29.83 in 10.0 mi SSW 20.7 mph 27.6 mph N/A   Clear
4:55 PM 80.6 °F 17.6 °F 10% 29.83 in 10.0 mi SSW 19.6 mph 27.6 mph N/A   Clear
5:15 PM 80.6 °F 21.2 °F 11% 29.82 in 10.0 mi SSW 21.9 mph - N/A   Clear
5:35 PM 77.0 °F 23.0 °F 13% 29.82 in 10.0 mi SSW 23.0 mph 29.9 mph N/A   Clear
5:55 PM 77.0 °F 24.8 °F 14% 29.82 in 10.0 mi SSW 20.7 mph 26.5 mph N/A   Unknown
6:15 PM 75.2 °F 24.8 °F 15% 29.83 in 10.0 mi SSW 17.3 mph 26.5 mph N/A   Clear
6:35 PM 73.4 °F 28.4 °F 19% 29.83 in 10.0 mi SSW 20.7 mph 28.8 mph N/A   Clear
6:55 PM 71.6 °F 28.4 °F 20% 29.84 in 10.0 mi SW 13.8 mph - N/A   Clear
7:15 PM 69.8 °F 28.4 °F 21% 29.84 in 10.0 mi SSW 16.1 mph 24.2 mph N/A   Clear
7:35 PM 68.0 °F 28.4 °F 23% 29.84 in 10.0 mi SSW 19.6 mph 24.2 mph N/A   Clear
7:55 PM 68.0 °F 28.4 °F 23% 29.84 in 10.0 mi SSW 17.3 mph 20.7 mph N/A   Clear
8:15 PM 68.0 °F 28.4 °F 23% 29.85 in 10.0 mi SSW 13.8 mph - N/A   Clear
8:35 PM 68.0 °F 30.2 °F 24% 29.86 in 10.0 mi SW 16.1 mph 24.2 mph N/A   Clear
8:55 PM 68.0 °F 32.0 °F 26% 29.86 in 10.0 mi WSW 11.5 mph 19.6 mph N/A   Clear
9:15 PM 68.0 °F 28.4 °F 23% 29.86 in 10.0 mi WNW 24.2 mph 29.9 mph N/A   Clear
9:35 PM 68.0 °F 26.6 °F 21% 29.86 in 10.0 mi WNW 20.7 mph 29.9 mph N/A   Clear
9:55 PM 66.2 °F 26.6 °F 23% 29.86 in 10.0 mi WNW 23.0 mph 27.6 mph N/A   Unknown
10:15 PM 66.2 °F 26.6 °F 23% 29.86 in 10.0 mi West 20.7 mph 26.5 mph N/A   Clear
10:35 PM 66.2 °F 24.8 °F 21% 29.86 in 10.0 mi West 20.7 mph 28.8 mph N/A   Clear
10:55 PM 64.4 °F 24.8 °F 22% 29.86 in 10.0 mi West 17.3 mph 24.2 mph N/A   Clear
11:15 PM 64.4 °F 24.8 °F 22% 29.86 in 10.0 mi West 18.4 mph 23.0 mph N/A   Clear
11:35 PM 64.4 °F 24.8 °F 22% 29.86 in 10.0 mi WSW 12.7 mph - N/A   Clear
11:55 PM 64.4 °F 23.0 °F 21% 29.85 in 10.0 mi WSW 12.7 mph 17.3 mph N/A   Clear